Regional Weather Roundup
Issued by NWS

Home | Current Version | Previous Version | Graphics & Text | Print | Product List | Glossary On
Versions: 1 2 3 4 5 6 7 8 9 10 11 12 13 14 15 16 17 18 19 20 21 22 23 24 25 26 27 28 29 30 31 32 33 34 35 36 37 38 39 40 41 42 43 44 45 46 47 48 49 50
000
ASUS43 KMKX 251820
RWRWI

WISCONSIN REGIONAL WEATHER ROUNDUP
NATIONAL WEATHER SERVICE MILWAUKEE/SULLIVAN WI
1200 PM CST SUN JAN 25 2015

NOTE: "FAIR" INDICATES FEW OR NO CLOUDS BELOW 12,000 FEET WITH NO
SIGNIFICANT WEATHER AND/OR OBSTRUCTIONS TO VISIBILITY.

WIZ001-002-006>008-014>016-023>028-251900-
NORTHWEST WISCONSIN

CITY           SKY/WX    TMP DP  RH WIND       PRES   REMARKS
SUPERIOR ARPT  CLOUDY    23  15  71 E14       30.07F WCI  11
6HR MIN TEMP:  20; 6HR MAX TEMP:  24;

ASHLAND        CLOUDY    20   9  62 NE12      30.08S WCI   8
6HR MIN TEMP:  17; 6HR MAX TEMP:  20; 6HR PCP: TRACE;

HAYWARD        PTSUNNY   19   8  62 E6        30.03S WCI  11
6HR MIN TEMP:  15; 6HR MAX TEMP:  20;

SIREN          CLOUDY    25  13  60 N6        30.04S WCI  18
6HR MIN TEMP:  19; 6HR MAX TEMP:  25;

CUMBERLAND     CLOUDY    19   9  63 E8        30.02R WCI   9
RICE LAKE      CLOUDY    20  10  63 E6        30.05R WCI  12
6HR MIN TEMP:  12; 6HR MAX TEMP:  20;

CHETEK         PTSUNNY   20  10  64 NE6       30.04S WCI  12
6HR MIN TEMP:  15; 6HR MAX TEMP:  20;

LADYSMITH      MOSUNNY   21  10  63 E8        30.04S WCI  11
6HR MIN TEMP:  15; 6HR MAX TEMP:  21;

EAU CLAIRE     PTSUNNY   21  11  65 NE9       30.03R WCI  11
6HR MIN TEMP:  19; 6HR MAX TEMP:  24;

MENOMONIE      CLOUDY    23  12  62 E9        30.04R WCI  13
6HR MIN TEMP:  20; 6HR MAX TEMP:  24;

NEW RICHMOND   MOSUNNY   21  10  63 E9        30.03F WCI  11
6HR MIN TEMP:  16; 6HR MAX TEMP:  21;

OSCEOLA        MOSUNNY   23  12  61 CALM      30.07F
6HR MIN TEMP:  18; 6HR MAX TEMP:  23;

$$

WIZ003>005-009-010-017-018-251900-
NORTH CENTRAL WISCONSIN

CITY           SKY/WX    TMP DP  RH WIND       PRES   REMARKS
MANITOWISH WTR PTSUNNY   17   6  62 SE3       30.00S
6HR MIN TEMP:  12; 6HR MAX TEMP:  17;

ARBOR VITAE    SUNNY     17   6  64 NE3       30.00R
6HR MIN TEMP:  14; 6HR MAX TEMP:  18;

WOODRUFF       SUNNY     17   6  64 NE3       30.00R
6HR MIN TEMP:  14; 6HR MAX TEMP:  18;

RHINELANDER    MOSUNNY   15   6  67 SE5       29.99F WCI   8
6HR MIN TEMP:  11; 6HR MAX TEMP:  15; 6HR PCP: TRACE;

EAGLE RIVER    SUNNY     16   4  58 E5        29.99S WCI   9
6HR MIN TEMP:  12; 6HR MAX TEMP:  16;

LAND O LAKES   MOSUNNY   17   6  61 SE3       30.01R
6HR MIN TEMP:  12; 6HR MAX TEMP:  17;

PHILLIPS       PTSUNNY   17   7  65 E6        30.01R WCI   8
6HR MIN TEMP:  11; 6HR MAX TEMP:  17;

TOMAHAWK       PTSUNNY   18   7  61 CALM      30.01S
6HR MIN TEMP:  14; 6HR MAX TEMP:  18;

MEDFORD        SUNNY     18   8  63 E7        29.99S WCI   9
6HR MIN TEMP:  13; 6HR MAX TEMP:  18;

MERRILL        PTSUNNY   19   7  59 NE6       30.01R WCI  11
6HR MIN TEMP:  15; 6HR MAX TEMP:  20;

$$

WIZ029-030-035-036-043>047-251900-
CENTRAL WISCONSIN

CITY           SKY/WX    TMP DP  RH WIND       PRES   REMARKS
WAUSAU         CLOUDY    18   8  65 NE10      30.00R WCI   6
6HR MIN TEMP:  16; 6HR MAX TEMP:  19; 6HR PCP: TRACE;

MOSINEE        CLOUDY    18  10  73 NE7       30.01S WCI   8
MARSHFIELD     CLOUDY    20  10  65 NE12      30.00R WCI   8
6HR MIN TEMP:  19; 6HR MAX TEMP:  21; 6HR PCP: TRACE;

STEVENS POINT  CLOUDY    18   8  64 E10       30.02R WCI   6
6HR MIN TEMP:  16; 6HR MAX TEMP:  18;

WAUPACA        CLOUDY    23  10  57 NE13G18   30.03R WCI  11
6HR MIN TEMP:  20; 6HR MAX TEMP:  23;

WAUTOMA        CLOUDY    21  11  65 NE17      30.01S WCI   7
6HR MIN TEMP:  19; 6HR MAX TEMP:  22; 6HR PCP: TRACE;

WISC RAPIDS    CLOUDY    22  10  60 E9        30.02S WCI  12
6HR MIN TEMP:  19; 6HR MAX TEMP:  22; 6HR PCP: TRACE;

CAMP DOUGLAS   PTSUNNY   25  14  63 E14       29.99S WCI  13
$$

WIZ011>013-019>022-031-037>040-048>050-251900-
NORTHEAST WISCONSIN

CITY           SKY/WX    TMP DP  RH WIND       PRES   REMARKS
ANTIGO         MOSUNNY   16   7  67 E8        30.00R WCI   5
6HR MIN TEMP:  13; 6HR MAX TEMP:  16;

SHAWANO        MOSUNNY   21   9  59 E13       30.05S WCI   8
6HR MIN TEMP:  19; 6HR MAX TEMP:  21;

OCONTO         CLOUDY    20   9  62 MISG      30.06S
6HR MIN TEMP:  15; 6HR MAX TEMP:  20;

STURGEON BAY   CLOUDY    19  10  68 NE10G17   30.05S WCI   8
6HR MIN TEMP:  14; 6HR MAX TEMP:  18;

GREEN BAY      MOSUNNY   19  11  70 NE23      30.03S WCI   2
6HR MIN TEMP:  17; 6HR MAX TEMP:  20; 6HR PCP: TRACE;

MANITOWOC      MOSUNNY   24  12  60 NE14G25   30.00S WCI  12
6HR MIN TEMP:  22; 6HR MAX TEMP:  24;

APPLETON       PTSUNNY   21  10  63 NE15G25   30.01R WCI   8
CLINTONVILLE   CLOUDY    21   9  58 NE12      30.04R WCI   9
OSHKOSH        CLOUDY    20  12  71 NE21G26   29.99R WCI   4
6HR MIN TEMP:  18; 6HR MAX TEMP:  21; 6HR PCP: TRACE;

$$

WIZ032>034-041-042-053>061-251900-
SOUTHWEST WISCONSIN

CITY           SKY/WX    TMP DP  RH WIND       PRES   REMARKS
LA CROSSE      CLOUDY    30  16  56 NE9       30.00R WCI  22
6HR MIN TEMP:  27; 6HR MAX TEMP:  30;

SPARTA         CLOUDY    25  15  65 NE13      30.01R WCI  14
6HR MIN TEMP:  23; 6HR MAX TEMP:  26;

VIROQUA        PTSUNNY   26  18  72 NE13      29.95R WCI  14
6HR MIN TEMP:  23; 6HR MAX TEMP:  27;

BOSCOBEL       CLOUDY    27  16  63 NE10G21   29.97R WCI  17
6HR MIN TEMP:  25; 6HR MAX TEMP:  29; 6HR PCP: TRACE;

PRAIRIE DU CHI CLOUDY    27  17  64 NE9       29.96R WCI  18
6HR MIN TEMP:  26; 6HR MAX TEMP:  32;

PLATTEVILLE    CLOUDY    25  20  82 N17G26    29.89R WCI  11
6HR MIN TEMP:  25; 6HR MAX TEMP:  30;

$$

WIZ056-057-062-063-064-067-068-251900-
SOUTH CENTRAL WISCONSIN

CITY           SKY/WX    TMP DP  RH WIND       PRES   REMARKS
REEDSBURG      CLOUDY    21  13  71 NE14      29.97S WCI   8
6HR MIN TEMP:  20; 6HR MAX TEMP:  22;

BARABOO/DELLS  FLURRIES  21  14  72 NE14G23   29.96R WCI   8
6HR MIN TEMP:  20; 6HR MAX TEMP:  22;

LONE ROCK      CLOUDY    24  15  68 N17G23    29.97R WCI  11
6HR MIN TEMP:  24; 6HR MAX TEMP:  26; 6HR PCP: TRACE;

MINERAL POINT  CLOUDY    27  19  74 NE15G26   29.89R WCI  15
MADISON        CLOUDY    25  16  68 NE22      29.92S WCI  10
6HR MIN TEMP:  23; 6HR MAX TEMP:  25; 6HR PCP: TRACE;

MIDDLETON      CLOUDY    26  19  74 NE14G22   29.93R WCI  15
6HR MIN TEMP:  24; 6HR MAX TEMP:  26;

WATERTOWN      CLOUDY    26  13  59 NE17G23   29.91S WCI  13
6HR MIN TEMP:  24; 6HR MAX TEMP:  26;

MONROE         CLOUDY    28  21  74 NE20G25   29.86R WCI  15
JANESVILLE     PTSUNNY   28  18  64 NE21G26   29.88R WCI  15
$$

WIZ051-052-058>065-066-070>072-251900-
SOUTHEAST WISCONSIN

CITY           SKY/WX    TMP DP  RH WIND       PRES   REMARKS
MILWAUKEE      PTSUNNY   26  14  60 NE21      29.91F WCI  12
6HR MIN TEMP:  25; 6HR MAX TEMP:  28; 6HR PCP: TRACE;

WAUKESHA       CLOUDY    21  12  68 NE15G28   29.91S WCI   8
MILWAUKEE/TIMM CLOUDY    25  10  54 NE20G26   29.93S WCI  11
RACINE         CLOUDY    27  16  63 NE20G31   29.91R WCI  13
6HR MIN TEMP:  27; 6HR MAX TEMP:  29; 6HR PCP: TRACE;

BURLINGTON     CLOUDY    25  15  66 NE18G26   29.88S WCI  11
6HR MIN TEMP:  24; 6HR MAX TEMP:  27;

KENOSHA        CLOUDY    27  18  69 NE21G29   29.87S WCI  13
6HR MIN TEMP:  27; 6HR MAX TEMP:  29; 6HR PCP: TRACE;

FOND DU LAC    CLOUDY    23  14  68 N18       29.98S WCI   9
6HR MIN TEMP:  21; 6HR MAX TEMP:  23; 6HR PCP: TRACE;

SHEBOYGAN      MOSUNNY   23  12  62 NE22      29.98R WCI   8
6HR MIN TEMP:  22; 6HR MAX TEMP:  26;

WEST BEND      SUNNY     25  10  54 NE18G24   29.93F WCI  11
JUNEAU         MOSUNNY   26  13  59 NE17G24   29.94S WCI  12
6HR MIN TEMP:  23; 6HR MAX TEMP:  26;

$$

LSZ147-162-251900-
LAKE SUPERIOR

STATION/POSITION TIME  TEMP    WIND        PRES    WAVE
                       AIR SEA DIR/SP/G            HT/PER
                 (UTC) (F)     (DEG/KT/KT) (MB)    (FT/S)
DEVILS ISLAND    1800   18      40/ 17/ 19 1020.7F
PORT WING        1740   21      90/  5/  9 1019.3R
SAXON HARBOR     1700   20      70/  4/  8 1019.0
$$

LMZ867-665-643>646-251900-
LAKE MICHIGAN

STATION/POSITION TIME  TEMP    WIND        PRES    WAVE
                       AIR SEA DIR/SP/G            HT/PER



USA.gov is the U.S. government's official web portal to all federal, state and local government web resources and services.